Regional Weather Roundup
Issued by NWS Wakefield, VA

Home | Current Version | Previous Version | Text Only | Print | Product List | Glossary On
Versions: 1 2 3 4 5 6 7 8 9 10 11 12 13 14 15 16 17 18 19 20 21 22 23 24 25 26 27 28 29 30 31 32 33 34 35 36 37 38 39 40 41 42 43 44 45 46 47 48 49
000
ASUS41 KAKQ 280710
RWRAKQ

REGIONAL WEATHER ROUNDUP
NATIONAL WEATHER SERVICE WAKEFIELD VA
200 AM EST SAT FEB 28 2015

Note: "fair" indicates few or no clouds below 12,000 feet with no
significant weather and/or obstructions to visibility. * = Denotes
station may not report precipitation (e.g., rain,snow,etc.),
thunder or fog.

VAZ042-051-052>054-056-280800-
NORTHERN VIRGINIA

CITY           SKY/WX    TMP DP  RH WIND       PRES   REMARKS
WASH NATIONAL  MOCLDY    23   4  44 N7        30.72R
DULLES         PTCLDY    19   0  43 N6        30.70R
FORT BELVOIR   PTCLDY    21   1  41 NW3       30.71R
QUANTICO       PTCLDY    22   2  42 N7        30.73R
FREDERICKSBRG* CLEAR     23   5  45 N6        30.71R
STAFFORD*      CLEAR     21  -1  38 N3        30.74R
WARRENTON      PTCLDY    18   9  67 CALM      30.69R
CULPEPER*      CLEAR     18   3  53 CALM      30.69R
MANASSAS*      PTCLDY    19   7  58 N7        30.70S
LEESBURG*      PTCLDY    19   7  58 CALM      30.70R
WINCHESTER     PTCLDY    19  -4  35 NW6       30.67R
FRONT ROYAL*   FAIR      18   1  49 N5        30.67R
LURAY*         FAIR      18   9  68 NE5       30.65R
$$

VAZ048-049-060>072-079>083-280800-
CENTRAL AND SOUTH CENTRAL VIRGINIA

CITY           SKY/WX    TMP DP  RH WIND       PRES   REMARKS
RICHMOND       PTCLDY    25   7  46 NE13      30.68R WCI  14
CHESTERFIELD*  FAIR      27   1  33 NE8       30.68R
PETERSBURG*    CLEAR     26  20  78 NE5       30.68R
HANOVER        CLEAR     23   6  48 VRB5      30.70R
TAPPAHANNOCK*  CLEAR     22   9  56 CALM      30.69R
QUINTON*       FAIR      23  18  80 CALM      30.69R
CHARLOTTSVILLE CLEAR     21   5  50 E6        30.65R
GORDONSVILLE*  FAIR      19   4  51 NE5       30.68R
ORANGE*        CLEAR     21   7  53 N6        30.69R
LOUISA*        CLEAR     21   7  53 NE8       30.66R
BUMPASS*       FAIR      23   4  45 CALM      30.68R
FARMVILLE*     CLOUDY    26  13  57 NE5       30.65R
CREWE*         FAIR      25  12  59 CALM      30.65R
FORT PICKETT*  FAIR      24  18  77 NE5       30.65R
CHASE CITY*    FAIR      28  23  82 CALM      30.64R
CLARKSVILLE*   CLOUDY    28  25  86 CALM      30.63R
SOUTH HILL*    CLOUDY    24  22  89 CALM      30.70R
LAWRENCEVILLE* PTSUNNY   24  22  93 CALM      30.65R
EMPORIA*       CLEAR     23  21  93 CALM      30.68R
$$

VAZ088>098-280800-
SOUTHEAST VIRGINIA

CITY           SKY/WX    TMP DP  RH WIND       PRES   REMARKS
NORFOLK        CLEAR     29  17  61 NE15      30.64R WCI  18
VIRGINIA BEACH CLEAR     29  20  69 N14       30.64R WCI  18
NORFOLK NAVAL  PTCLDY    30  15  53 NE13      30.67R WCI  20
WEST POINT*    CLEAR     25  13  58 N3        30.70R
SALUDA*        FAIR      23  15  72 N5        30.68R
NEWPORT NEWS   CLEAR     27  16  63 N7        30.66R
LANGLEY AFB    CLEAR     27  15  60 NE12      30.66R WCI  17
FORT EUSTIS    CLEAR     25  21  87 NE5       30.65R
WILLIAMSBURG*  CLEAR     25  21  86 CALM      30.68R
HR EXEC AP*    FAIR      27  18  69 NE6       30.67R
FRANKLIN*      CLEAR     24  21  91 CALM      30.67R
WAKEFIELD      CLEAR     25  20  81 NE3       30.67R
$$

VAZ020-022-025-037-045-280800-
WEST CENTRAL AND SOUTHWEST VIRGINIA

CITY           SKY/WX    TMP DP  RH WIND       PRES   REMARKS
STAUNTON*      CLEAR     13   3  63 CALM      30.64R
WAYNESBORO*    FAIR      13   3  65 CALM      30.60R
HOT SPRINGS VA FAIR       8  -1  68 W7        30.38R
LYNCHBURG      CLOUDY    25  12  58 NE6       30.63R
DANVILLE       CLEAR     25   8  48 NE6       30.63R
SOUTH BOSTON*  CLOUDY    28  21  74 NE3       30.64R
MARTINSVILLE   CLEAR     24  10  54 N5        30.63R
ROANOKE        CLEAR     20   6  55 E5        30.63R
BLACKSBURG     CLEAR     10   3  74 CALM      30.56R
DUBLIN*        CLEAR     16   7  67 NE3       30.55R
MARION*        CLEAR     10   6  83 E3        30.52R
HILLSVILLE*    PTCLDY    14   8  75 E6        30.47R
RICHLANDS*     PTSUNNY   13   5  70 NE6       30.47R
WISE*          CLOUDY    16   7  67 NE3       30.48R
ABINGDON*      MOCLDY    20  10  66 E5        30.49S
$$

MDZ021>025-VAZ099-100-280800-
SOUTHERN MARYLAND AND THE DELMARVA PENINSULA

CITY           SKY/WX    TMP DP  RH WIND       PRES   REMARKS
PATUXENT RIVER CLEAR     23   4  44 N8        30.69R
BAY BRIDGE APT   N/A     21   5  49 N7        30.71R
LEONARDTOWN    CLEAR     23   1  39 N3        30.70R
DOVER          CLEAR     20   6  53 NW9       30.69R
GEORGETOWN     PTCLDY    22   5  48 N3        30.69R
EASTON         CLEAR     23   8  52 N3        30.73S
CAMBRIDGE      PTCLDY    25   7  46 N7        30.69R
SALISBURY      PTCLDY    18  13  80 CALM      30.69R
OCEAN CITY     PTCLDY    19  11  70 NW5       30.68R
WALLOPS ISLAND PTCLDY    20  13  74 N6        30.68R
ACCOMACK*      CLEAR     21  14  73 N6        30.66S
$$

NCZ012>017-030>032-280800-
NORTH CENTRAL AND EASTERN NORTH CAROLINA

CITY           SKY/WX    TMP DP  RH WIND       PRES   REMARKS
ROANOKE RAPIDS FAIR      27  23  86 N3        30.65R
RALEIGH        CLEAR     28  21  75 NE9       30.60R
ELIZABETH CITY CLEAR     30  22  72 N9        30.63R
AHOSKIE*       CLEAR     25  22  88 CALM      30.66R
EDENTON*       CLEAR     28  25  89 N6        30.63R
CURRITUCK*     CLEAR     31  20  62 NE10      30.64R WCI  23
KILL DEVIL HLS CLEAR     33  24  70 N12G17    30.59R WCI  24
MANTEO         CLEAR     32  25  74 N14G21    30.60S WCI  22
CAPE HATTERAS  PTCLDY    36  32  85 N12G21    30.55R
TARBORO*       FAIR      28  24  85 N5        30.65R
GOLDSBORO      CLEAR     30  29  98 NE7       30.59R
WASHINGTON     MOCLDY    29  26  89 N7        30.62R
GREENVILLE     CLEAR     27  25  93 N5        30.62R
NEW BERN       PTCLDY    30  27  88 N9        30.60R FOG
WILMINGTON     PTCLDY    33  29  85 NE10      30.56R WCI  25
$$

VAZ048-280800-
ELSEWHERE

CITY           SKY/WX    TMP DP  RH WIND       PRES   REMARKS
HARRISBURG PA  CLEAR     16  -1  47 NW8       30.68R
BALTIMORE      PTCLDY    17   0  47 NW5       30.70R
ANNAPOLIS      PTCLDY    20   3  48 NW5       30.71R
ANDREWS AFB    PTCLDY    19   3  50 N8        30.68S
PHILADELPHIA   CLEAR     21   4  47 N12       30.69R WCI   9
HENDERSON NC   PTCLDY    26  24  91 CALM      30.62S
GREENSBORO     CLEAR     26   9  48 N10       30.56R WCI  16
ROCKY MOUNT    CLEAR     27  23  85 NE7       30.64R
$$

VAZ100-280800-
MARINE

STATION/POSITION TIME  TEMP    WIND        PRES    WAVE   SWELL
                       AIR SEA DIR/SP/G            HT/PER HT/PER
                 (UTC) (F)     (DEG/KT/KT) (MB)    (FT/S) (FT/S)
BRANDYWINE LGT   0600   25 29  360/ 20/ 24 1038.4R
CAPE MAY NJ      0700   24 31  350/  6/ 10 1038.3R
LEWES DE         0700   24 30  340/ 13/ 16 1039.0R
15NM E FENWICK I 0700   28 36              1037.8R   5/10
OCEAN-CITY-INLET 0600   24 32  330/  6/  7 1038.4R
WACHAPREAGUE VA  0700   22 33   10/  5/  8 1038.2F
THOMAS POINT MD  0700   22 31  340/ 13/ 14 1040.5R
COVE POINT MD    0700   23      20/ 15/ 18 1039.1R
SOLOMONS ISLAND  0600      33                N/A
BISHOPS HEAD MD  0700   22 31  360/  5/  9 1038.8R
CAMBRIDGE MD     0700   23 32  350/ 10/ 11 1039.2S
LEWISETTA VA     0700   25 32              1039.1R
RAPPAHANNOCK LGT 0700           20/ 21/ 22 1038.7S
STINGRAY PT      0700   28      40/ 16/ 17   N/A
YORK RVR RNG VA  0600   29      40/ 13/ 15 1037.3R
YORKTOWN VA      0600           20/  5/  6   N/A
DOMINION TERM VA 0700   28      50/  5/ 10 1038.0R
KIPTOPEKE VA     0700      37   30/  4/  7   N/A
CHES BAY BRIDGE  0600   29 32   20/ 15/ 16 1037.3R
CAPE HENRY VA    0700   29      20/ 17/ 19 1036.4R
CHESAPEAKE LGHT  0600   31      20/ 22/ 24 1036.9R
WILLOUBY STN VA  0700   29      40/ 16/ 18 1038.3R
S CRANEY ISL VA  0600           30/ 10/ 12 1037.5R
CAPE HENRY BUOY  0600      35                N/A     5/10   2/11
1ST LANDING BUOY 0700   29      20/ 16/ 17 1037.4R
OFFSHORE WE BUOY 0600      38                N/A     5/11   3/11
64NM E OF VA BCH 0700   38 60   10/ 19/ 25 1035.5R   7/11   3/11
DUCK PIER NC     0600   33 35   20/ 20/ 23 1035.5R
44100 DUCK FRF   0600      36                N/A     6/11   2/11
44056 DUCK FRF   0600      35                N/A     6/11   2/11
OREGON INLET NC  0700   35 38  360/ 14/ 19 1035.4R
HATTERAS NC      0600   37 41   10/ 18/ 22 1034.7R
CAPE LOOKOUT NC  0700   35      10/ 13/ 16 1034.4R
$$



USA.gov is the U.S. government's official web portal to all federal, state and local government web resources and services.